星链-5006 (STARLINK-5006 )

导读 | 星芒AI

STARLINK-5006 是 SpaceX 星链计划中的一颗低轨道通信卫星,属于第十一组星链卫星群。该卫星于2022年发射,旨在为全球用户提供高速互联网服务。它运行在约550公里高的近地轨道,采用先进的推进和通信技术,支持高带宽、低延迟的数据传输。星链项目通过部署数千颗此类卫星,致力于实现全球覆盖,特别是在偏远和网络基础设施薄弱地区。STARLINK-5006 在提升全球互联网接入能力方面发挥着重要作用。

基本信息
目录编号:
55422
目录名称:
STARLINK-5006
国际标识:
2023-014AH
轨道中心:
EARTH
卫星名称:
星链-5006
卫星全名:
星链-5006 (STARLINK-5006 )
卫星状态:
在轨 (已飞行1009 天)
发射日期:
2023-01-31 UTC
国别 :
美国 (US)
星等 :
--
轨道信息
数据来源 国际轨道数据
星历时间: 2025-11-05T00:49:59+0800
7小时前
查看轨道信息
半长轴: 6950.182km
偏心率: 0.0002851
轨道倾角: 70.001°
近地点辐角 264.912°
升交点赤经 39.454°
平近点角 95.171°
近地点: 570.065km
远地点: 574.029km
周期: 96.107分钟
每日圈数: 14.983337
详细信息
固有亮度:
5
最大亮度:
2.5
卫星平台:
Starlink v1.5
覆盖范围:
全球
运营商:
太空探索技术公司
运营商所在国:
美国
制造商(研发单位):
太空探索技术公司
制造商所在国:
美国
使用方式:
暂无
卫星简介
星链(Starlink)计划是由太空探索技术公司(SpaceX)提出的一个巨型低轨卫星互联网星座项目,计划在2019年至2024年间在太空搭建由约1.2万颗卫星组成的“星链”网络,其中1584颗将部署在地球上空550千米处的近地轨道,并从2020年开始工作。该卫星仍在工作。
2D轨道图
3D轨道图
轨道高度分析图
轨道倾角分析图
轨道综合分析图
查看轨道综合分析图